Escanaba, MI

1:13 PM EDT on July 24, 2016 (GMT -0400)
Delta County

Weather History for KESC - January, 2013

Change the Weather History Date:

Monday, January 7, 2013

  Actual Average Record
Temperature  
Mean Temperature 20 °F -  
Max Temperature 35 °F 21 °F 47 °F (1949)
Min Temperature 6 °F 6 °F -19 °F (1968)
Degree Days  
Heating Degree Days 44    
Moisture  
Dew Point 17 °F    
Average Humidity 65    
Maximum Humidity 100    
Minimum Humidity 51    
Precipitation  
Precipitation 0.00 in - - ()
Sea Level Pressure  
Sea Level Pressure 29.97 in    
Wind  
Wind Speed 10 mph (SW)    
Max Wind Speed 24 mph    
Max Gust Speed 36 mph    
Visibility 10 miles    
Events      
Averages and records for this station are not official NWS values.
T = Trace of Precipitation, MM = Missing Value Source: NWS Daily Summary

Daily Weather History Graph

Daily Weather History Graph

Search for Another Location

Airport or City:

Trip Planner

Search our weather history database for the weather conditions in past years. The results will help you decide how hot, cold, wet, or windy it might be!

Date:

Astronomy

Jan. 07, 2013 Rise Set
Actual Time 8:28 AM EST 5:21 PM EST
Civil Twilight 7:54 AM EST 5:55 PM EST
Nautical Twilight 7:17 AM EST 6:32 PM EST
Astronomical Twilight 6:41 AM EST 7:08 PM EST
Moon 3:48 AM EST (1/7) 1:34 PM EST (1/7)
Length of Visible Light 10h 00m
Length of Day
8h 52m
Waning Crescent, 23% of the Moon is Illuminated
Jan 7
Waning Crescent
Jan 11
New
Jan 18
First Quarter
Jan 26
Full
Feb 3
Last Quarter

Hourly Weather History & Observations

Time (EST) Temp. Windchill Dew Point Humidity Pressure Visibility Wind Dir Wind Speed Gust Speed Precip Events Conditions
12:35 AM 6.8 °F - 1.4 °F 79% 30.21 in 7.0 mi Calm Calm - N/A   Clear
12:55 AM 6.8 °F - 3.2 °F 85% 30.21 in 5.0 mi Calm Calm - N/A   Clear
1:15 AM 8.6 °F - 3.2 °F 79% 30.20 in 7.0 mi Calm Calm - N/A   Clear
1:35 AM 8.6 °F - 3.2 °F 79% 30.19 in 4.0 mi Calm Calm - N/A   Clear
1:55 AM 10.4 °F - 6.8 °F 85% 30.18 in 8.0 mi Calm Calm - N/A   Clear
2:15 AM 12.2 °F 4.3 °F 12.2 °F 100% 30.17 in 8.0 mi SSW 4.6 mph - N/A   Clear
2:35 AM 17.6 °F 8.2 °F 12.2 °F 79% 30.16 in 10.0 mi South 6.9 mph - N/A   Clear
2:55 AM 26.6 °F 16.8 °F 19.4 °F 74% 30.16 in 10.0 mi SSW 10.4 mph - N/A   Clear
3:15 AM 26.6 °F 16.8 °F 21.2 °F 80% 30.14 in 10.0 mi South 10.4 mph - N/A   Clear
3:35 AM 26.6 °F 15.7 °F 19.4 °F 74% 30.15 in 10.0 mi SSW 12.7 mph - N/A   Clear
3:55 AM 23.0 °F 11.7 °F 15.8 °F 74% 30.14 in 10.0 mi SW 11.5 mph 20.7 mph N/A   Clear
4:15 AM 21.2 °F 12.6 °F 14.0 °F 74% 30.13 in 10.0 mi SSW 6.9 mph - N/A   Clear
4:35 AM 21.2 °F 10.9 °F 14.0 °F 74% 30.13 in 10.0 mi SW 9.2 mph - N/A   Clear
4:55 AM 19.4 °F 7.2 °F 14.0 °F 80% 30.13 in 10.0 mi SW 11.5 mph - N/A   Clear
5:15 AM 19.4 °F 8.6 °F 12.2 °F 74% 30.11 in 10.0 mi SSW 9.2 mph - N/A   Clear
5:35 AM 19.4 °F 7.2 °F 12.2 °F 74% 30.10 in 10.0 mi SSW 11.5 mph 17.3 mph N/A   Clear
5:55 AM 21.2 °F 9.5 °F 14.0 °F 74% 30.08 in 10.0 mi SSW 11.5 mph 17.3 mph N/A   Clear
6:15 AM 24.8 °F 12.9 °F 15.8 °F 69% 30.06 in 10.0 mi SSW 13.8 mph 21.9 mph N/A   Clear
6:35 AM 26.6 °F 14.3 °F 17.6 °F 69% 30.05 in 10.0 mi SSW 16.1 mph 24.2 mph N/A   Clear
6:55 AM 26.6 °F 14.3 °F 19.4 °F 74% 30.04 in 10.0 mi SSW 16.1 mph 24.2 mph N/A   Clear
7:15 AM 26.6 °F 14.7 °F 17.6 °F 69% 30.04 in 10.0 mi SSW 15.0 mph 26.5 mph N/A   Clear
7:35 AM 26.6 °F 13.8 °F 17.6 °F 69% 30.04 in 10.0 mi SSW 17.3 mph 25.3 mph N/A   Clear
7:55 AM 26.6 °F 14.3 °F 15.8 °F 64% 30.03 in 10.0 mi SSW 16.1 mph 21.9 mph N/A   Clear
8:15 AM 24.8 °F 13.4 °F 14.0 °F 64% 30.03 in 10.0 mi SSW 12.7 mph 17.3 mph N/A   Clear
8:35 AM 24.8 °F 11.9 °F 12.2 °F 59% 30.02 in 10.0 mi SSW 16.1 mph 26.5 mph N/A   Clear
8:55 AM 24.8 °F 12.4 °F 14.0 °F 64% 30.01 in 10.0 mi SSW 15.0 mph 20.7 mph N/A   Clear
9:15 AM 24.8 °F 11.1 °F 12.2 °F 59% 30.00 in 10.0 mi SSW 18.4 mph 24.2 mph N/A   Clear
9:35 AM 26.6 °F 14.7 °F 12.2 °F 55% 29.99 in 10.0 mi SW 15.0 mph 28.8 mph N/A   Clear
9:55 AM 26.6 °F 14.3 °F 14.0 °F 59% 29.98 in 10.0 mi SSW 16.1 mph 31.1 mph N/A   Clear
10:15 AM 26.6 °F 13.4 °F 15.8 °F 64% 29.96 in 10.0 mi SSW 18.4 mph 28.8 mph N/A   Clear
10:35 AM 28.4 °F 16.2 °F 17.6 °F 64% 29.97 in 10.0 mi SW 17.3 mph 29.9 mph N/A   Clear
10:55 AM 28.4 °F 15.4 °F 15.8 °F 59% 29.96 in 10.0 mi SW 19.6 mph 28.8 mph N/A   Clear
11:15 AM 30.2 °F 17.1 °F 15.8 °F 55% 29.95 in 10.0 mi SSW 21.9 mph 35.7 mph N/A   Clear
11:35 AM 30.2 °F 17.8 °F 15.8 °F 55% 29.93 in 10.0 mi SSW 19.6 mph 31.1 mph N/A   Clear
11:55 AM 30.2 °F 18.5 °F 15.8 °F 55% 29.91 in 10.0 mi SSW 17.3 mph 35.7 mph N/A   Clear
12:15 PM 32.0 °F 18.9 °F 15.8 °F 51% 29.89 in 10.0 mi SW 24.2 mph 34.5 mph N/A   Clear
12:35 PM 32.0 °F 19.8 °F 17.6 °F 55% 29.89 in 10.0 mi SW 20.7 mph 28.8 mph N/A   Clear
12:55 PM 33.8 °F 23.9 °F 17.6 °F 52% 29.88 in 10.0 mi SW 15.0 mph 27.6 mph N/A   Clear
1:15 PM 33.8 °F 22.5 °F 17.6 °F 52% 29.86 in 10.0 mi SW 19.6 mph 27.6 mph N/A   Clear
1:35 PM 33.8 °F 22.5 °F 17.6 °F 52% 29.85 in 10.0 mi SSW 19.6 mph 26.5 mph N/A   Clear
2:15 PM 35.6 °F 25.9 °F 19.4 °F 52% 29.84 in 10.0 mi SW 16.1 mph 27.6 mph N/A   Clear
2:35 PM 35.6 °F 24.5 °F 19.4 °F 52% 29.83 in 10.0 mi SW 20.7 mph 28.8 mph N/A   Clear
2:55 PM 35.6 °F 25.2 °F 19.4 °F 52% 29.84 in 10.0 mi SSW 18.4 mph 25.3 mph N/A   Clear
3:15 PM 33.8 °F 23.2 °F 19.4 °F 56% 29.83 in 10.0 mi SW 17.3 mph 25.3 mph N/A   Clear
3:35 PM 35.6 °F 24.8 °F 19.4 °F 52% 29.83 in 10.0 mi SW 19.6 mph 25.3 mph N/A   Clear
3:55 PM 33.8 °F 23.5 °F 19.4 °F 56% 29.84 in 10.0 mi SW 16.1 mph 32.2 mph N/A   Clear
4:15 PM 33.8 °F 23.5 °F 19.4 °F 56% 29.84 in 10.0 mi SW 16.1 mph 20.7 mph N/A   Clear
4:35 PM 33.8 °F 24.8 °F 19.4 °F 56% 29.85 in 10.0 mi SSW 12.7 mph 20.7 mph N/A   Clear
4:55 PM 33.8 °F 24.8 °F 19.4 °F 56% 29.85 in 10.0 mi SSW 12.7 mph 20.7 mph N/A   Clear
5:15 PM 33.8 °F 24.3 °F 19.4 °F 56% 29.85 in 10.0 mi SSW 13.8 mph - N/A   Clear
5:35 PM 33.8 °F 24.3 °F 24.8 °F 70% 29.86 in 10.0 mi SSW 13.8 mph - N/A   Clear
6:15 PM 32.0 °F 23.0 °F 21.2 °F 64% 29.86 in 10.0 mi SSW 11.5 mph 16.1 mph N/A   Clear
6:35 PM 32.0 °F 24.2 °F 21.2 °F 64% 29.86 in 10.0 mi SSW 9.2 mph - N/A   Clear
6:55 PM 33.8 °F 25.8 °F 21.2 °F 60% 29.86 in 10.0 mi SSW 10.4 mph - N/A   Clear
7:15 PM 33.8 °F 24.8 °F 21.2 °F 60% 29.86 in 10.0 mi SW 12.7 mph - N/A   Clear
7:35 PM 33.8 °F 24.8 °F 21.2 °F 60% 29.86 in 10.0 mi SW 12.7 mph - N/A   Clear
7:55 PM 33.8 °F 24.8 °F 21.2 °F 60% 29.87 in 10.0 mi SW 12.7 mph 17.3 mph N/A   Clear
8:15 PM 33.8 °F 24.3 °F 21.2 °F 60% 29.87 in 10.0 mi SW 13.8 mph 19.6 mph N/A   Clear
8:35 PM 33.8 °F 25.3 °F 21.2 °F 60% 29.87 in 10.0 mi SW 11.5 mph - N/A   Clear
8:55 PM 33.8 °F 24.8 °F 21.2 °F 60% 29.87 in 10.0 mi SW 12.7 mph - N/A   Clear
9:15 PM 33.8 °F 24.3 °F 21.2 °F 60% 29.88 in 10.0 mi SW 13.8 mph 20.7 mph N/A   Clear
9:35 PM 33.8 °F 24.8 °F 21.2 °F 60% 29.88 in 10.0 mi SW 12.7 mph 18.4 mph N/A   Clear
9:55 PM 33.8 °F 24.8 °F 23.0 °F 65% 29.89 in 10.0 mi SW 12.7 mph 19.6 mph N/A   Clear
10:15 PM 32.0 °F 22.5 °F 21.2 °F 64% 29.89 in 10.0 mi SW 12.7 mph - N/A   Clear
10:35 PM 32.0 °F 22.5 °F 21.2 °F 64% 29.89 in 10.0 mi WSW 12.7 mph - N/A   Clear
10:55 PM 32.0 °F 22.5 °F 21.2 °F 64% 29.90 in 10.0 mi WSW 12.7 mph 18.4 mph N/A   Clear
11:15 PM 32.0 °F 23.6 °F 21.2 °F 64% 29.91 in 10.0 mi WSW 10.4 mph 19.6 mph N/A   Clear
11:35 PM 30.2 °F 20.2 °F 21.2 °F 69% 29.91 in 10.0 mi WSW 12.7 mph - N/A   Clear
11:55 PM 30.2 °F 21.3 °F 21.2 °F 69% 29.92 in 10.0 mi WSW 10.4 mph - N/A   Clear